Burns, OR

4:04 PM PST on January 23, 2018 (GMT -0800)
Burns Municipal

Weather History for KBNO - October, 2012

Change the Weather History Date:

Saturday, October 20, 2012

  Actual Average Record
Temperature  
Mean Temperature 40 °F 43 °F  
Max Temperature 55 °F 60 °F 76 °F (2003)
Min Temperature 25 °F 27 °F 7 °F (1996)
Degree Days  
Heating Degree Days 25 22  
Month to date heating degree days 356 368  
Since 1 July heating degree days 544 787  
Cooling Degree Days 0 0  
Month to date cooling degree days 0 0  
Year to date cooling degree days 309 215  
Moisture  
Dew Point 31 °F    
Average Humidity 59    
Maximum Humidity 86    
Minimum Humidity 32    
Precipitation  
Precipitation 0.00 in 0.03 in 0.25 in (1973)
Month to date precipitation 0.41 0.44  
Year to date precipitation 6.84 7.86  
Sea Level Pressure  
Sea Level Pressure 29.84 in    
Wind  
Wind Speed 10 mph (WSW)    
Max Wind Speed 28 mph    
Max Gust Speed 35 mph    
Visibility 9 miles    
Events      
T = Trace of Precipitation, MM = Missing Value Source: NWS Daily Summary

Daily Weather History Graph

Daily Weather History Graph

Search for Another Location

Airport or City:

Trip Planner

Search our weather history database for the weather conditions in past years. The results will help you decide how hot, cold, wet, or windy it might be!

Date:

Astronomy

Oct. 20, 2012 Rise Set
Actual Time 7:16 AM PDT 6:03 PM PDT
Civil Twilight 6:47 AM PDT 6:32 PM PDT
Nautical Twilight 6:14 AM PDT 7:05 PM PDT
Astronomical Twilight 5:41 AM PDT 7:38 PM PDT
Moon 1:01 PM PDT (10/20) 10:50 PM PDT (10/20)
Length of Visible Light 11h 44m
Length of Day
10h 46m
Waxing Crescent, 35% of the Moon is Illuminated
Oct 20
Waxing Crescent
Oct 21
First Quarter
Oct 29
Full
Nov 6
Last Quarter
Nov 13
New

Hourly Weather History & Observations

Time (PDT) Temp. Windchill Dew Point Humidity Pressure Visibility Wind Dir Wind Speed Gust Speed Precip Events Conditions
12:53 AM 50.0 °F - 43.0 °F 77% 29.81 in 10.0 mi SW 8.1 mph - N/A   Mostly Cloudy
1:53 AM 50.0 °F - 39.9 °F 68% 29.81 in 10.0 mi WSW 15.0 mph 21.9 mph N/A   Partly Cloudy
2:53 AM 46.0 °F 41.9 °F 39.0 °F 76% 29.81 in 10.0 mi SW 8.1 mph - N/A   Clear
3:53 AM 44.1 °F 39.5 °F 37.0 °F 76% 29.81 in 8.0 mi WSW 8.1 mph - N/A   Clear
4:53 AM 43.0 °F 38.2 °F 37.9 °F 82% 29.81 in 10.0 mi South 8.1 mph - N/A   Overcast
5:53 AM 42.1 °F 37.7 °F 37.9 °F 85% 29.81 in 7.0 mi West 6.9 mph - N/A   Clear
6:53 AM 41.0 °F 35.8 °F 37.9 °F 89% 29.83 in 8.0 mi WSW 8.1 mph - N/A   Scattered Clouds
7:53 AM 42.1 °F 36.6 °F 37.0 °F 82% 29.83 in 8.0 mi SW 9.2 mph - N/A   Clear
8:53 AM 44.1 °F 39.0 °F 37.9 °F 79% 29.83 in 6.0 mi West 9.2 mph - N/A   Haze
9:53 AM 50.0 °F - 35.1 °F 57% 29.83 in 8.0 mi WSW 18.4 mph 24.2 mph N/A   Partly Cloudy
10:53 AM 48.9 °F - 34.0 °F 56% 29.85 in 8.0 mi West 12.7 mph - N/A   Overcast
11:53 AM 52.0 °F - 33.1 °F 49% 29.83 in 8.0 mi West 12.7 mph 19.6 mph N/A   Overcast
12:53 PM 53.1 °F - 28.0 °F 38% 29.82 in 7.0 mi WSW 21.9 mph 32.2 mph N/A   Mostly Cloudy
1:53 PM 54.0 °F - 27.0 °F 35% 29.81 in 9.0 mi SW 17.3 mph 28.8 mph N/A   Partly Cloudy
2:53 PM 52.0 °F - 25.0 °F 35% 29.81 in 7.0 mi WSW 15.0 mph - N/A   Partly Cloudy
3:53 PM 51.1 °F - 23.0 °F 33% 29.81 in 7.0 mi West 16.1 mph 23.0 mph N/A   Scattered Clouds
4:53 PM 48.0 °F - 23.0 °F 37% 29.83 in 9.0 mi West 12.7 mph - N/A   Clear
5:53 PM 45.0 °F 39.7 °F 25.0 °F 46% 29.83 in 10.0 mi NW 10.4 mph - N/A   Clear
6:53 PM 39.0 °F 32.8 °F 24.1 °F 55% 29.87 in 10.0 mi WNW 9.2 mph - N/A   Partly Cloudy
7:53 PM 37.0 °F 31.6 °F 23.0 °F 57% 29.88 in 10.0 mi WSW 6.9 mph - N/A   Clear
8:53 PM 34.0 °F - 23.0 °F 64% 29.89 in 10.0 mi Calm Calm - N/A   Clear
9:53 PM 32.0 °F - 25.0 °F 75% 29.89 in 10.0 mi Calm Calm - N/A   Clear
10:53 PM 28.0 °F 24.2 °F 21.9 °F 78% 29.90 in 10.0 mi East 3.5 mph - N/A   Clear
11:53 PM 27.0 °F 21.6 °F 21.9 °F 81% 29.89 in 10.0 mi WSW 4.6 mph - N/A   Clear